Track IRIDIUM 38 now! 10-day predictions IRIDIUM 38 is classified as:
1 25043U 97069E 22224.22568880 .00000205 00000-0 63109-4 0 9996 2 25043 86.3976 309.9679 0000801 114.1246 246.0035 14.36419724296857